QPF
0.00 0.00 0.00 0.00 0.00 0.00 0.00 0.00 0.00 0.00 0.00 0.00 0.00 0.00 0.00 0.00 0.02 0.04 0.07 0.10 0.12 0.13 0.13 0.13 0.13 0.11 0.09 0.09 0.09 0.09 0.09 0.07 0.05 0.04 0.02 0.01 0.00 0.00 0.00 0.00 0.00 0.00 0.00 0.00
0.00 0.00 0.00 0.00 0.00 0.00 0.00 0.00 0.00 0.00 0.00 0.00 0.00 0.00 0.00 0.00 0.02 0.04 0.05 0.06 0.06 0.07 0.07 0.07 0.07 0.07 0.07 0.06 0.06 0.06 0.06 0.05 0.05 0.05 0.04 0.02 0.01 0.00 0.00 0.00 0.00 0.00 0.00 0.00
0.00 0.00 0.00 0.00 0.00 0.00 0.00 0.00 0.00 0.00 0.00 0.00 0.00 0.00 0.00 0.00 0.01 0.01 0.02 0.02 0.02 0.03 0.03 0.04 0.03 0.03 0.03 0.04 0.05 0.05 0.04 0.04 0.04 0.06 0.06 0.03 0.01 0.00 0.00 0.00 0.00 0.00 0.00 0.00
0.00 0.00 0.00 0.00 0.00 0.00 0.00 0.00 0.00 0.00 0.00 0.00 0.00 0.00 0.00 0.00 0.00 0.00 0.00 0.01 0.01 0.01 0.01 0.01 0.01 0.00 0.01 0.02 0.04 0.05 0.05 0.05 0.03 0.03 0.03 0.02 0.02 0.01 0.00 0.00 0.00 0.00 0.00 0.00
0.00 0.00 0.00 0.00 0.00 0.00 0.00 0.00 0.00 0.00 0.00 0.00 0.00 0.00 0.00 0.00 0.00 0.00 0.00 0.00 0.00 0.00 0.00 0.00 0.00 0.00 0.00 0.01 0.02 0.04 0.04 0.04 0.03 0.01 0.01 0.01 0.01 0.01 0.01 0.00 0.00 0.00 0.00 0.00
0.00 0.00 0.00 0.00 0.00 0.00 0.00 0.00 0.00 0.00 0.00 0.00 0.00 0.00 0.00 0.00 0.00 0.00 0.00 0.00 0.00 0.00 0.00 0.00 0.00 0.00 0.01 0.01 0.02 0.02 0.03 0.02 0.02 0.01 0.00 0.00 0.00 0.00 0.00 0.00 0.00 0.00 0.00 0.00
0.00 0.00 0.00 0.00 0.00 0.00 0.00 0.00 0.00 0.00 0.00 0.00 0.00 0.00 0.00 0.00 0.00 0.00 0.00 0.00 0.00 0.00 0.00 0.00 0.00 0.00 0.01 0.01 0.01 0.02 0.02 0.02 0.01 0.01 0.00 0.00 0.00 0.00 0.00 0.00 0.00 0.00 0.00 0.00
0.00 0.00 0.00 0.00 0.00 0.00 0.00 0.00 0.00 0.00 0.00 0.00 0.00 0.00 0.00 0.00 0.00 0.00 0.00 0.00 0.00 0.00 0.00 0.00 0.00 0.00 0.00 0.01 0.01 0.01 0.01 0.01 0.01 0.01 0.00 0.00 0.00 0.00 0.00 0.00 0.00 0.00 0.00 0.00
0.00 0.00 0.00 0.00 0.00 0.00 0.00 0.00 0.00 0.00 0.00 0.00 0.00 0.00 0.00 0.00 0.00 0.00 0.00 0.00 0.00 0.00 0.00 0.00 0.00 0.00 0.00 0.00 0.00 0.00 0.00 0.00 0.00 0.00 0.00 0.00 0.00 0.00 0.00 0.00 0.00 0.00 0.00 0.00
0.00 0.00 0.00 0.00 0.00 0.00 0.00 0.00 0.00 0.00 0.00 0.00 0.00 0.00 0.00 0.00 0.00 0.00 0.00 0.00 0.00 0.00 0.00 0.00 0.00 0.00 0.00 0.00 0.00 0.00 0.00 0.00 0.00 0.00 0.00 0.00 0.00 0.00 0.00 0.00 0.00 0.00 0.00 0.00
0.00 0.00 0.00 0.00 0.00 0.00 0.00 0.00 0.00 0.00 0.00 0.00 0.00 0.00 0.00 0.00 0.00 0.00 0.00 0.00 0.00 0.00 0.00 0.00 0.00 0.00 0.00 0.00 0.00 0.00 0.00 0.00 0.00 0.00 0.00 0.00 0.00 0.00 0.00 0.00 0.00 0.00 0.00 0.00
0.00 0.00 0.00 0.00 0.00 0.00 0.00 0.00 0.00 0.00 0.00 0.00 0.00 0.00 0.00 0.00 0.00 0.00 0.00 0.00 0.00 0.00 0.00 0.00 0.00 0.00 0.00 0.00 0.00 0.00 0.00 0.00 0.00 0.00 0.00 0.00 0.00 0.00 0.00 0.00 0.00 0.00 0.00 0.00
0.00 0.00 0.00 0.00 0.00 0.00 0.00 0.00 0.00 0.00 0.00 0.00 0.00 0.00 0.00 0.00 0.00 0.00 0.00 0.00 0.00 0.00 0.00 0.00 0.00 0.00 0.00 0.00 0.00 0.00 0.00 0.00 0.00 0.00 0.00 0.00 0.00 0.00 0.00 0.00 0.00 0.00 0.00 0.00
0.00 0.00 0.00 0.00 0.00 0.00 0.00 0.00 0.00 0.00 0.00 0.00 0.00 0.00 0.00 0.00 0.00 0.00 0.00 0.00 0.00 0.00 0.00 0.00 0.00 0.00 0.00 0.00 0.00 0.00 0.00 0.00 0.00 0.00 0.00 0.00 0.00 0.00 0.00 0.00 0.00 0.00 0.00 0.00
0.00 0.00 0.00 0.00 0.01 0.01 0.01 0.01 0.00 0.00 0.00 0.00 0.00 0.00 0.00 0.00 0.00 0.00 0.00 0.00 0.00 0.00 0.00 0.00 0.00 0.00 0.00 0.00 0.00 0.00 0.00 0.00 0.00 0.00 0.00 0.00 0.00 0.00 0.00 0.00 0.00 0.00 0.00 0.00
0.00 0.01 0.01 0.02 0.02 0.02 0.02 0.01 0.01 0.01 0.00 0.00 0.00 0.00 0.00 0.00 0.00 0.00 0.00 0.00 0.00 0.00 0.00 0.00 0.00 0.00 0.00 0.00 0.00 0.00 0.00 0.00 0.00 0.00 0.00 0.00 0.00 0.00 0.00 0.00 0.00 0.00 0.00 0.00
0.02 0.03 0.05 0.05 0.04 0.04 0.03 0.03 0.02 0.01 0.01 0.00 0.00 0.00 0.00 0.00 0.00 0.00 0.00 0.00 0.00 0.00 0.00 0.00 0.00 0.00 0.00 0.00 0.00 0.00 0.00 0.00 0.00 0.00 0.00 0.00 0.00 0.00 0.00 0.00 0.00 0.00 0.00 0.00
0.06 0.07 0.07 0.07 0.07 0.08 0.09 0.08 0.06 0.04 0.02 0.01 0.01 0.00 0.00 0.00 0.00 0.00 0.00 0.00 0.00 0.00 0.00 0.00 0.00 0.00 0.00 0.00 0.00 0.00 0.00 0.00 0.00 0.00 0.00 0.00 0.00 0.00 0.00 0.00 0.00 0.00 0.00 0.00
0.07 0.09 0.10 0.12 0.15 0.18 0.19 0.18 0.14 0.09 0.06 0.03 0.02 0.01 0.00 0.00 0.00 0.00 0.00 0.00 0.00 0.00 0.00 0.00 0.00 0.00 0.00 0.00 0.00 0.00 0.00 0.00 0.00 0.00 0.00 0.00 0.00 0.00 0.00 0.00 0.00 0.00 0.00 0.00
0.10 0.15 0.20 0.24 0.28 0.31 0.31 0.28 0.23 0.17 0.11 0.07 0.05 0.03 0.01 0.00 0.00 0.00 0.00 0.00 0.00 0.00 0.00 0.00 0.00 0.00 0.00 0.00 0.00 0.00 0.00 0.00 0.00 0.00 0.00 0.00 0.00 0.00 0.00 0.00 0.00 0.00 0.00 0.00
0.15 0.21 0.25 0.29 0.31 0.32 0.33 0.31 0.27 0.22 0.16 0.11 0.08 0.05 0.03 0.01 0.00 0.00 0.00 0.00 0.00 0.00 0.00 0.00 0.00 0.00 0.00 0.00 0.00 0.00 0.00 0.00 0.00 0.00 0.00 0.00 0.00 0.00 0.00 0.00 0.00 0.00 0.00 0.00
0.07 0.09 0.11 0.13 0.15 0.17 0.17 0.16 0.15 0.13 0.11 0.09 0.07 0.04 0.03 0.01 0.01 0.00 0.00 0.00 0.00 0.00 0.00 0.00 0.00 0.00 0.00 0.00 0.00 0.00 0.00 0.00 0.00 0.00 0.00 0.00 0.00 0.00 0.00 0.00 0.00 0.00 0.00 0.00
0.01 0.02 0.02 0.03 0.05 0.06 0.07 0.07 0.06 0.05 0.05 0.04 0.03 0.02 0.02 0.01 0.01 0.01 0.00 0.00 0.01 0.01 0.00 0.00 0.00 0.00 0.00 0.00 0.00 0.00 0.00 0.00 0.00 0.00 0.00 0.00 0.00 0.00 0.00 0.00 0.00 0.00 0.00 0.00
0.01 0.01 0.01 0.02 0.02 0.03 0.02 0.02 0.02 0.02 0.02 0.01 0.01 0.00 0.00 0.01 0.01 0.01 0.00 0.00 0.01 0.01 0.01 0.01 0.01 0.01 0.01 0.00 0.00 0.00 0.00 0.00 0.00 0.00 0.00 0.00 0.00 0.00 0.00 0.00 0.00 0.00 0.00 0.00
0.01 0.01 0.01 0.01 0.02 0.02 0.02 0.02 0.01 0.01 0.01 0.00 0.00 0.00 0.00 0.00 0.00 0.00 0.00 0.01 0.01 0.01 0.01 0.01 0.01 0.01 0.01 0.00 0.00 0.00 0.00 0.00 0.00 0.00 0.00 0.00 0.01 0.01 0.01 0.01 0.00 0.00 0.00 0.00
0.02 0.02 0.02 0.02 0.02 0.03 0.03 0.02 0.01 0.01 0.01 0.01 0.00 0.00 0.00 0.00 0.00 0.00 0.01 0.01 0.01 0.01 0.01 0.01 0.02 0.02 0.01 0.01 0.01 0.00 0.01 0.01 0.00 0.00 0.00 0.00 0.01 0.01 0.01 0.01 0.01 0.01 0.00 0.00
0.03 0.04 0.04 0.05 0.05 0.06 0.05 0.05 0.03 0.02 0.01 0.01 0.01 0.01 0.01 0.01 0.01 0.01 0.01 0.01 0.01 0.01 0.01 0.02 0.02 0.02 0.01 0.01 0.01 0.00 0.01 0.01 0.01 0.01 0.01 0.01 0.00 0.00 0.00 0.01 0.01 0.00 0.00 0.00
MSLP
1015.85 1016.25 1016.61 1016.93 1017.15 1017.24 1017.17 1016.92 1016.49 1015.93 1015.26 1014.55 1013.87 1013.27 1012.80 1012.49 1012.34 1012.31 1012.37 1012.48 1012.58 1012.63 1012.61 1012.53 1012.39 1012.22 1012.07 1011.97 1011.94 1012.00 1012.15 1012.37 1012.65 1012.95 1013.25 1013.51 1013.74 1013.92 1014.05 1014.15 1014.23 1014.29 1014.35 1014.40
1015.80 1016.03 1016.20 1016.29 1016.28 1016.15 1015.91 1015.54 1015.08 1014.55 1013.99 1013.43 1012.94 1012.54 1012.26 1012.10 1012.05 1012.10 1012.19 1012.30 1012.40 1012.45 1012.45 1012.40 1012.31 1012.22 1012.14 1012.12 1012.15 1012.25 1012.42 1012.65 1012.91 1013.18 1013.45 1013.69 1013.89 1014.06 1014.21 1014.33 1014.43 1014.53 1014.62 1014.72
1015.77 1015.83 1015.79 1015.65 1015.42 1015.10 1014.70 1014.24 1013.76 1013.27 1012.81 1012.41 1012.09 1011.86 1011.74 1011.70 1011.74 1011.83 1011.93 1012.04 1012.11 1012.15 1012.15 1012.13 1012.09 1012.06 1012.06 1012.10 1012.20 1012.35 1012.55 1012.79 1013.05 1013.31 1013.57 1013.80 1014.00 1014.18 1014.34 1014.48 1014.62 1014.75 1014.88 1015.01
1015.77 1015.64 1015.40 1015.06 1014.64 1014.15 1013.63 1013.11 1012.62 1012.18 1011.81 1011.53 1011.35 1011.26 1011.25 1011.31 1011.40 1011.51 1011.61 1011.69 1011.74 1011.77 1011.77 1011.76 1011.76 1011.79 1011.85 1011.96 1012.12 1012.32 1012.56 1012.82 1013.09 1013.36 1013.62 1013.86 1014.08 1014.27 1014.46 1014.63 1014.80 1014.96 1015.12 1015.27
1015.76 1015.45 1015.02 1014.51 1013.93 1013.32 1012.71 1012.15 1011.66 1011.27 1010.98 1010.80 1010.73 1010.74 1010.81 1010.92 1011.04 1011.15 1011.24 1011.31 1011.34 1011.35 1011.35 1011.36 1011.40 1011.47 1011.59 1011.75 1011.97 1012.21 1012.49 1012.78 1013.07 1013.36 1013.63 1013.89 1014.13 1014.36 1014.58 1014.78 1014.98 1015.17 1015.35 1015.51
1015.63 1015.15 1014.57 1013.91 1013.22 1012.53 1011.89 1011.31 1010.84 1010.49 1010.27 1010.17 1010.17 1010.24 1010.37 1010.51 1010.65 1010.77 1010.85 1010.90 1010.93 1010.94 1010.96 1011.00 1011.07 1011.18 1011.35 1011.56 1011.81 1012.09 1012.40 1012.71 1013.02 1013.33 1013.63 1013.92 1014.19 1014.45 1014.70 1014.94 1015.17 1015.38 1015.57 1015.73
1015.27 1014.64 1013.94 1013.19 1012.44 1011.71 1011.05 1010.49 1010.06 1009.76 1009.59 1009.54 1009.60 1009.72 1009.88 1010.05 1010.20 1010.33 1010.43 1010.49 1010.54 1010.58 1010.63 1010.70 1010.81 1010.97 1011.17 1011.41 1011.69 1011.99 1012.31 1012.64 1012.97 1013.29 1013.62 1013.94 1014.24 1014.54 1014.83 1015.10 1015.35 1015.58 1015.78 1015.95
1014.61 1013.87 1013.08 1012.28 1011.49 1010.76 1010.12 1009.59 1009.21 1008.95 1008.84 1008.84 1008.93 1009.09 1009.28 1009.48 1009.67 1009.83 1009.96 1010.07 1010.16 1010.25 1010.35 1010.48 1010.63 1010.83 1011.06 1011.32 1011.61 1011.92 1012.24 1012.57 1012.91 1013.25 1013.59 1013.94 1014.28 1014.62 1014.94 1015.24 1015.52 1015.76 1015.97 1016.14
1013.65 1012.83 1011.99 1011.15 1010.36 1009.65 1009.05 1008.57 1008.23 1008.03 1007.96 1008.00 1008.13 1008.32 1008.54 1008.78 1009.01 1009.22 1009.41 1009.59 1009.75 1009.92 1010.09 1010.28 1010.50 1010.73 1010.98 1011.25 1011.54 1011.85 1012.16 1012.49 1012.82 1013.17 1013.53 1013.90 1014.28 1014.64 1015.00 1015.33 1015.63 1015.90 1016.12 1016.31
1012.48 1011.60 1010.73 1009.88 1009.11 1008.43 1007.87 1007.44 1007.15 1006.99 1006.96 1007.03 1007.18 1007.40 1007.65 1007.92 1008.20 1008.48 1008.75 1009.01 1009.27 1009.53 1009.79 1010.06 1010.33 1010.60 1010.88 1011.16 1011.45 1011.74 1012.04 1012.36 1012.69 1013.04 1013.42 1013.81 1014.21 1014.60 1014.99 1015.35 1015.68 1015.96 1016.20 1016.40
1011.25 1010.34 1009.45 1008.62 1007.86 1007.22 1006.69 1006.30 1006.04 1005.91 1005.89 1005.97 1006.13 1006.36 1006.63 1006.94 1007.27 1007.61 1007.96 1008.32 1008.67 1009.03 1009.38 1009.73 1010.06 1010.38 1010.69 1010.98 1011.27 1011.56 1011.85 1012.15 1012.48 1012.84 1013.22 1013.63 1014.05 1014.48 1014.89 1015.27 1015.62 1015.93 1016.19 1016.40
1010.18 1009.25 1008.36 1007.53 1006.79 1006.17 1005.66 1005.29 1005.04 1004.90 1004.87 1004.94 1005.09 1005.31 1005.58 1005.90 1006.26 1006.65 1007.06 1007.49 1007.94 1008.38 1008.82 1009.24 1009.64 1010.01 1010.35 1010.67 1010.97 1011.26 1011.55 1011.86 1012.19 1012.56 1012.95 1013.38 1013.82 1014.26 1014.69 1015.09 1015.46 1015.78 1016.05 1016.27
1009.43 1008.49 1007.60 1006.78 1006.05 1005.43 1004.93 1004.55 1004.28 1004.12 1004.05 1004.07 1004.18 1004.35 1004.59 1004.89 1005.24 1005.65 1006.09 1006.57 1007.07 1007.59 1008.09 1008.58 1009.04 1009.46 1009.85 1010.20 1010.52 1010.84 1011.15 1011.48 1011.83 1012.21 1012.62 1013.06 1013.51 1013.96 1014.41 1014.82 1015.19 1015.51 1015.79 1016.01
1009.08 1008.15 1007.27 1006.46 1005.73 1005.11 1004.60 1004.19 1003.88 1003.67 1003.54 1003.48 1003.51 1003.60 1003.77 1004.01 1004.32 1004.69 1005.13 1005.62 1006.14 1006.68 1007.23 1007.77 1008.28 1008.75 1009.19 1009.59 1009.96 1010.31 1010.66 1011.02 1011.40 1011.81 1012.24 1012.69 1013.15 1013.61 1014.05 1014.45 1014.82 1015.14 1015.40 1015.63
1009.13 1008.23 1007.36 1006.56 1005.84 1005.22 1004.68 1004.24 1003.88 1003.59 1003.38 1003.23 1003.15 1003.14 1003.20 1003.34 1003.56 1003.86 1004.24 1004.69 1005.20 1005.74 1006.30 1006.86 1007.41 1007.93 1008.42 1008.87 1009.30 1009.71 1010.11 1010.52 1010.93 1011.37 1011.82 1012.28 1012.74 1013.19 1013.62 1014.01 1014.36 1014.66 1014.91 1015.11
1009.48 1008.61 1007.78 1007.00 1006.29 1005.66 1005.11 1004.62 1004.21 1003.85 1003.55 1003.29 1003.09 1002.96 1002.89 1002.91 1003.01 1003.20 1003.49 1003.85 1004.30 1004.80 1005.34 1005.91 1006.47 1007.03 1007.57 1008.08 1008.57 1009.04 1009.50 1009.96 1010.42 1010.89 1011.36 1011.83 1012.29 1012.72 1013.13 1013.49 1013.81 1014.08 1014.30 1014.48
1009.95 1009.13 1008.33 1007.58 1006.90 1006.28 1005.72 1005.21 1004.75 1004.33 1003.94 1003.59 1003.27 1003.01 1002.81 1002.69 1002.65 1002.71 1002.87 1003.13 1003.49 1003.92 1004.42 1004.96 1005.52 1006.10 1006.67 1007.24 1007.79 1008.32 1008.84 1009.36 1009.86 1010.36 1010.85 1011.32 1011.76 1012.17 1012.55 1012.88 1013.16 1013.39 1013.59 1013.75
1010.34 1009.58 1008.83 1008.13 1007.47 1006.87 1006.32 1005.80 1005.32 1004.85 1004.40 1003.97 1003.56 1003.18 1002.85 1002.60 1002.42 1002.35 1002.38 1002.52 1002.77 1003.11 1003.54 1004.04 1004.58 1005.16 1005.75 1006.35 1006.95 1007.54 1008.11 1008.67 1009.22 1009.74 1010.23 1010.70 1011.13 1011.51 1011.86 1012.15 1012.39 1012.60 1012.76 1012.91
1010.52 1009.80 1009.10 1008.44 1007.83 1007.26 1006.73 1006.22 1005.73 1005.24 1004.75 1004.26 1003.78 1003.32 1002.89 1002.53 1002.23 1002.03 1001.94 1001.96 1002.10 1002.35 1002.70 1003.13 1003.64 1004.20 1004.79 1005.41 1006.04 1006.66 1007.28 1007.87 1008.44 1008.98 1009.48 1009.94 1010.35 1010.71 1011.02 1011.29 1011.50 1011.68 1011.83 1011.96
1010.39 1009.71 1009.05 1008.44 1007.86 1007.32 1006.81 1006.32 1005.84 1005.34 1004.84 1004.32 1003.80 1003.29 1002.80 1002.35 1001.97 1001.67 1001.48 1001.39 1001.43 1001.58 1001.85 1002.22 1002.67 1003.19 1003.77 1004.39 1005.02 1005.67 1006.30 1006.92 1007.50 1008.05 1008.56 1009.01 1009.41 1009.75 1010.05 1010.29 1010.49 1010.65 1010.80 1010.93
1009.98 1009.32 1008.69 1008.10 1007.55 1007.03 1006.54 1006.06 1005.59 1005.10 1004.59 1004.07 1003.54 1003.00 1002.48 1001.99 1001.55 1001.19 1000.92 1000.75 1000.70 1000.77 1000.96 1001.25 1001.65 1002.12 1002.66 1003.26 1003.89 1004.53 1005.17 1005.80 1006.39 1006.95 1007.46 1007.92 1008.31 1008.65 1008.94 1009.17 1009.37 1009.54 1009.69 1009.83
1009.39 1008.73 1008.10 1007.51 1006.96 1006.44 1005.95 1005.47 1005.00 1004.51 1004.01 1003.49 1002.96 1002.42 1001.89 1001.39 1000.93 1000.54 1000.22 1000.00 999.89 999.89 1000.00 1000.22 1000.55 1000.97 1001.46 1002.02 1002.63 1003.26 1003.89 1004.52 1005.13 1005.70 1006.22 1006.68 1007.09 1007.44 1007.73 1007.98 1008.19 1008.37 1008.54 1008.71
1008.72 1008.04 1007.39 1006.78 1006.20 1005.66 1005.14 1004.64 1004.15 1003.65 1003.15 1002.64 1002.12 1001.59 1001.08 1000.58 1000.13 999.72 999.39 999.13 998.97 998.92 998.96 999.12 999.38 999.74 1000.18 1000.69 1001.27 1001.87 1002.50 1003.13 1003.75 1004.33 1004.87 1005.36 1005.79 1006.17 1006.49 1006.76 1006.99 1007.21 1007.40 1007.60
1008.10 1007.38 1006.69 1006.03 1005.40 1004.81 1004.24 1003.69 1003.16 1002.64 1002.12 1001.61 1001.09 1000.59 1000.10 999.63 999.19 998.79 998.45 998.18 997.99 997.89 997.88 997.98 998.17 998.47 998.85 999.32 999.85 1000.44 1001.06 1001.69 1002.32 1002.93 1003.50 1004.02 1004.49 1004.90 1005.26 1005.57 1005.84 1006.08 1006.31 1006.55
1007.59 1006.82 1006.07 1005.35 1004.65 1003.98 1003.35 1002.73 1002.15 1001.58 1001.04 1000.51 1000.00 999.51 999.05 998.60 998.19 997.81 997.48 997.20 996.99 996.85 996.80 996.84 996.97 997.21 997.53 997.95 998.45 999.01 999.62 1000.26 1000.91 1001.54 1002.15 1002.72 1003.23 1003.69 1004.10 1004.45 1004.76 1005.05 1005.31 1005.58
1007.19 1006.37 1005.56 1004.76 1003.99 1003.24 1002.52 1001.83 1001.18 1000.57 999.99 999.44 998.93 998.46 998.01 997.60 997.21 996.85 996.53 996.26 996.03 995.87 995.77 995.76 995.84 996.02 996.29 996.67 997.13 997.67 998.28 998.92 999.59 1000.26 1000.91 1001.52 1002.09 1002.59 1003.05 1003.44 1003.80 1004.12 1004.42 1004.73
1006.84 1005.97 1005.10 1004.24 1003.39 1002.56 1001.77 1001.01 1000.30 999.63 999.02 998.46 997.94 997.48 997.05 996.66 996.30 995.97 995.66 995.39 995.16 994.97 994.85 994.80 994.83 994.96 995.19 995.53 995.96 996.49 997.09 997.74 998.43 999.13 999.81 1000.47 1001.08 1001.64 1002.13 1002.58 1002.97 1003.33 1003.66 1003.99
Thickness
5662 5665 5661 5659 5658 5648 5635 5634 5629 5637 5638 5652 5655 5654 5653 5651 5645 5640 5635 5630 5625 5620 5616 5613 5611 5610 5610 5612 5614 5615 5616 5616 5617 5617 5618 5619 5620 5620 5621 5621 5621 5620 5620 5620
5658 5663 5655 5652 5658 5654 5646 5642 5636 5638 5642 5656 5654 5652 5649 5646 5641 5636 5632 5628 5623 5619 5614 5611 5609 5607 5606 5607 5608 5609 5609 5609 5610 5610 5610 5611 5611 5612 5612 5611 5610 5610 5608 5608
5638 5650 5647 5639 5655 5653 5648 5648 5643 5638 5648 5656 5651 5648 5646 5644 5639 5635 5631 5627 5622 5618 5614 5610 5607 5605 5603 5603 5603 5603 5603 5603 5603 5603 5603 5603 5603 5602 5602 5601 5600 5599 5598 5598
5628 5634 5623 5648 5664 5660 5651 5652 5649 5649 5651 5651 5649 5649 5646 5643 5638 5634 5631 5627 5622 5618 5613 5609 5606 5603 5601 5599 5598 5598 5598 5598 5597 5596 5596 5595 5595 5594 5593 5592 5591 5590 5589 5588
5617 5617 5627 5648 5661 5656 5645 5645 5655 5648 5650 5650 5646 5642 5640 5643 5640 5636 5632 5627 5622 5617 5612 5608 5604 5601 5598 5596 5595 5594 5593 5593 5592 5592 5590 5589 5588 5587 5586 5584 5583 5582 5581 5580
5616 5615 5616 5643 5663 5663 5649 5638 5655 5650 5647 5643 5634 5627 5635 5646 5641 5636 5632 5626 5621 5616 5611 5606 5603 5599 5596 5594 5592 5591 5590 5589 5588 5587 5586 5584 5582 5581 5579 5578 5577 5576 5574 5573
5617 5612 5627 5652 5659 5654 5630 5634 5653 5650 5646 5638 5632 5638 5643 5644 5639 5636 5631 5626 5620 5614 5609 5606 5602 5597 5594 5592 5590 5590 5588 5586 5584 5583 5581 5579 5577 5576 5574 5573 5571 5569 5567 5565
5615 5610 5623 5657 5652 5641 5641 5651 5650 5648 5645 5640 5639 5641 5638 5636 5635 5632 5628 5624 5619 5613 5609 5605 5601 5597 5594 5591 5590 5588 5585 5583 5580 5578 5577 5575 5573 5571 5570 5568 5566 5564 5562 5559
5630 5636 5650 5654 5651 5654 5651 5647 5648 5646 5646 5641 5638 5636 5635 5632 5631 5629 5626 5623 5618 5613 5609 5605 5601 5597 5594 5593 5589 5586 5583 5580 5577 5575 5573 5572 5570 5568 5566 5564 5563 5560 5558 5556
5632 5641 5647 5651 5651 5652 5650 5648 5650 5648 5645 5640 5636 5636 5632 5630 5628 5626 5624 5620 5616 5611 5608 5604 5601 5598 5596 5593 5589 5586 5582 5578 5575 5572 5570 5568 5567 5566 5565 5563 5561 5558 5555 5552
5632 5640 5643 5649 5650 5653 5652 5650 5647 5646 5643 5640 5636 5634 5631 5628 5627 5625 5623 5619 5614 5610 5608 5606 5602 5599 5596 5593 5589 5585 5581 5577 5574 5571 5568 5566 5564 5563 5563 5562 5561 5557 5554 5550
5637 5645 5640 5644 5651 5652 5648 5646 5646 5643 5642 5640 5637 5635 5633 5630 5628 5625 5621 5617 5612 5609 5607 5605 5602 5599 5596 5593 5589 5585 5581 5576 5572 5569 5566 5563 5561 5558 5558 5557 5556 5554 5551 5547
5643 5649 5645 5647 5649 5649 5646 5645 5646 5643 5642 5640 5639 5636 5633 5630 5628 5623 5619 5615 5613 5610 5607 5604 5600 5598 5595 5592 5588 5585 5581 5577 5572 5568 5565 5561 5559 5558 5554 5551 5550 5549 5546 5543
5639 5638 5636 5642 5643 5646 5644 5644 5644 5642 5641 5640 5639 5636 5633 5630 5626 5621 5619 5618 5615 5610 5606 5602 5598 5596 5594 5590 5586 5583 5580 5576 5572 5568 5565 5561 5558 5556 5553 5551 5548 5545 5542 5539
5628 5628 5629 5634 5636 5636 5636 5636 5635 5634 5636 5636 5636 5634 5631 5628 5625 5624 5623 5619 5613 5607 5603 5599 5596 5595 5592 5587 5584 5580 5577 5573 5570 5566 5563 5560 5556 5553 5550 5548 5545 5543 5540 5537
5609 5612 5615 5616 5617 5618 5619 5620 5621 5623 5625 5626 5628 5629 5629 5628 5626 5624 5620 5615 5609 5606 5603 5599 5596 5594 5589 5585 5581 5577 5574 5571 5568 5564 5560 5557 5554 5551 5547 5545 5542 5540 5538 5537
5590 5591 5591 5592 5594 5595 5596 5597 5599 5603 5607 5612 5616 5620 5623 5622 5620 5618 5616 5613 5611 5609 5606 5601 5598 5594 5588 5583 5579 5575 5571 5568 5565 5562 5558 5556 5553 5550 5547 5544 5541 5539 5538 5538
5570 5569 5570 5571 5572 5575 5577 5578 5579 5582 5586 5593 5600 5606 5610 5612 5613 5614 5613 5610 5606 5603 5603 5601 5597 5592 5587 5582 5578 5574 5569 5565 5563 5560 5556 5554 5551 5549 5546 5543 5541 5539 5538 5536
5559 5559 5561 5561 5561 5561 5562 5563 5564 5567 5570 5575 5582 5589 5595 5600 5604 5607 5607 5604 5602 5602 5604 5601 5595 5590 5586 5582 5577 5572 5567 5563 5560 5557 5554 5551 5549 5547 5544 5542 5540 5538 5537 5534
5548 5549 5550 5551 5551 5551 5551 5552 5554 5556 5559 5563 5568 5574 5580 5587 5593 5596 5598 5600 5603 5607 5607 5600 5593 5589 5586 5582 5577 5572 5567 5563 5559 5556 5552 5550 5547 5545 5543 5541 5539 5538 5536 5534
5532 5533 5534 5535 5537 5539 5539 5540 5542 5545 5549 5553 5557 5562 5568 5576 5582 5586 5589 5594 5600 5602 5601 5597 5594 5591 5588 5583 5577 5573 5569 5564 5560 5556 5553 5550 5547 5544 5542 5541 5539 5537 5536 5534
5511 5511 5512 5514 5516 5519 5522 5524 5527 5531 5536 5541 5547 5553 5559 5565 5572 5577 5582 5589 5596 5597 5596 5596 5595 5593 5590 5584 5579 5575 5570 5566 5562 5558 5554 5551 5547 5545 5543 5541 5539 5538 5536 5535
5488 5488 5489 5491 5493 5496 5500 5504 5509 5514 5521 5528 5536 5543 5549 5556 5562 5568 5575 5583 5588 5591 5593 5595 5595 5593 5588 5583 5581 5577 5574 5569 5565 5561 5557 5554 5550 5548 5545 5543 5540 5539 5537 5535
5470 5469 5469 5470 5470 5473 5478 5484 5489 5496 5504 5513 5523 5532 5540 5548 5556 5563 5570 5576 5580 5584 5588 5591 5591 5590 5584 5584 5581 5579 5576 5573 5569 5565 5561 5557 5554 5551 5548 5545 5542 5540 5538 5536
5456 5455 5454 5453 5454 5458 5462 5466 5472 5480 5488 5499 5510 5520 5530 5539 5548 5557 5563 5569 5574 5578 5583 5587 5587 5585 5584 5583 5582 5581 5579 5576 5572 5568 5564 5560 5557 5554 5551 5547 5544 5542 5539 5537
5447 5447 5447 5446 5447 5449 5453 5457 5463 5471 5478 5487 5499 5510 5521 5531 5540 5548 5555 5562 5568 5573 5578 5582 5585 5582 5583 5583 5583 5582 5581 5578 5574 5570 5567 5563 5560 5556 5553 5550 5547 5543 5541 5538
5443 5444 5444 5446 5449 5450 5453 5456 5461 5468 5474 5481 5491 5503 5513 5524 5533 5542 5550 5557 5563 5568 5573 5577 5580 5581 5582 5583 5584 5583 5581 5578 5575 5572 5569 5565 5562 5558 5555 5552 5548 5545 5542 5539